Temp
11 11 11 10 10 10 10 10 10 10 10 10 10 10 10 10 10 10 10 10 10 9 9 9 9 9 9 9 9 9 9 9 9 9 9 9 9 9 10 10 10 9
11 11 11 11 10 10 10 10 10 10 10 10 10 10 10 10 10 10 9 9 10 10 9 9 9 9 9 9 9 9 9 9 9 9 9 9 9 9 10 10 10 9
11 11 11 11 11 10 10 10 10 10 10 10 10 10 10 10 10 10 10 10 10 10 10 10 9 9 9 9 9 9 9 9 9 9 9 9 9 9 10 10 10 9
11 11 11 11 11 11 10 10 10 10 10 10 10 10 10 10 10 10 10 10 10 10 10 10 10 9 9 9 10 10 9 9 9 9 9 9 9 9 9 10 10 9
11 11 11 11 11 11 11 10 10 10 10 10 10 10 10 10 10 10 10 10 10 10 10 10 10 10 10 10 10 10 10 10 10 10 9 9 9 9 9 9 9 9
11 11 11 11 11 11 11 11 10 10 10 10 10 10 10 10 10 10 10 10 10 10 9 10 10 10 10 10 10 10 10 10 10 10 10 10 10 10 10 9 9 9
11 11 11 11 11 11 11 11 11 10 10 10 10 10 10 10 10 10 10 10 10 10 9 9 9 10 10 10 10 9 9 10 10 10 10 10 10 10 10 10 10 9
11 11 11 11 11 11 11 11 11 11 11 10 10 10 10 10 10 10 10 10 10 10 9 9 9 9 10 10 10 10 10 9 10 10 10 10 10 10 10 10 10 10
11 11 11 11 11 11 11 11 11 11 11 11 11 10 10 10 10 10 10 10 10 10 9 9 9 9 9 10 10 10 10 10 10 10 10 10 10 10 10 10 10 10
11 11 11 11 11 11 11 11 11 11 11 11 11 10 10 10 10 10 10 10 10 10 10 9 9 9 9 9 9 9 10 10 10 10 10 10 10 10 10 10 10 10
11 11 11 11 11 11 11 11 11 11 11 11 11 11 10 10 10 10 10 10 10 10 10 10 9 9 9 9 9 9 9 9 9 9 10 10 10 10 10 10 10 10
12 12 11 11 11 11 11 11 11 11 11 11 11 11 11 10 10 10 10 10 10 10 10 10 10 9 9 9 9 9 9 9 9 9 9 9 10 10 10 10 10 10
12 12 12 11 11 11 11 11 11 11 11 11 11 11 11 11 10 10 10 10 10 10 10 10 10 9 9 9 9 9 9 10 10 9 9 9 9 10 10 10 10 10
11 11 11 11 11 11 11 11 11 11 11 11 11 11 11 11 11 11 10 10 10 10 10 10 10 10 10 9 9 9 9 9 10 10 10 9 9 9 10 10 10 10
11 11 11 11 11 11 11 11 11 11 11 11 11 12 12 11 11 11 11 11 10 10 10 10 10 10 10 10 10 9 9 9 9 10 10 10 10 10 10 10 10 10
10 10 11 11 11 11 11 11 11 11 11 11 11 12 11 11 11 11 11 11 11 11 11 10 10 10 10 10 10 10 10 10 9 9 10 10 10 10 10 10 10 10
10 10 10 10 11 11 11 11 11 11 11 11 12 12 11 11 11 11 12 12 11 11 11 11 11 11 10 10 10 10 10 10 10 10 10 10 10 10 10 10 10 10
10 10 10 10 10 11 11 11 11 11 11 11 11 12 12 11 11 11 11 11 12 12 12 12 11 11 11 11 10 10 10 10 10 10 10 10 10 10 10 10 9 9
11 11 11 11 11 11 11 11 11 11 11 11 11 11 11 11 11 11 11 11 11 12 12 12 12 12 11 11 11 11 10 10 10 10 10 10 10 10 10 10 10 10
12 12 12 12 11 11 10 10 10 11 11 11 11 11 11 11 11 11 11 11 11 11 12 12 12 12 12 11 11 11 11 10 10 10 10 10 10 10 10 10 10 10
12 12 12 12 12 11 11 11 11 11 11 11 11 11 11 11 11 11 11 11 11 11 11 12 12 12 12 12 11 11 11 11 11 10 10 10 10 10 10 11 11 10
12 12 12 11 11 11 11 11 11 11 11 11 11 11 11 11 11 11 11 11 12 11 11 12 12 12 12 12 11 11 11 11 11 11 11 11 11 11 11 11 11 11
12 12 11 11 11 11 12 12 11 11 11 11 10 10 11 11 11 11 11 11 11 11 11 12 12 12 12 12 12 11 11 11 11 11 11 11 11 11 11 11 11 11
12 12 12 11 11 11 11 11 11 11 11 10 10 10 10 11 11 11 11 11 11 12 12 12 12 12 12 12 12 11 11 11 11 11 11 11 11 11 11 11 11 12
11 11 12 12 11 11 11 11 11 11 11 10 10 10 11 11 11 11 11 12 12 12 12 12 12 12 12 12 12 12 11 11 11 11 11 11 11 11 11 12 12 12
11 11 11 11 11 11 11 11 11 11 11 11 11 11 11 11 11 11 11 12 12 12 12 12 12 12 12 12 12 12 12 11 11 11 11 11 11 11 11 12 12 12
Height
3220 3221 3223 3225 3227 3229 3230 3232 3233 3235 3236 3238 3239 3241 3242 3243 3243 3244 3245 3246 3247 3248 3249 3250 3250 3251 3252 3253 3253 3253 3254 3254 3255 3255 3256 3256 3256 3257 3258 3258 3258 3259
3219 3220 3222 3224 3226 3228 3229 3231 3232 3234 3236 3237 3238 3240 3241 3242 3243 3244 3245 3246 3247 3247 3248 3249 3250 3251 3252 3252 3253 3253 3253 3254 3254 3255 3256 3256 3257 3257 3258 3258 3259 3259
3218 3219 3221 3222 3224 3226 3228 3230 3232 3233 3234 3236 3237 3238 3240 3241 3242 3243 3244 3245 3246 3247 3248 3249 3250 3250 3251 3252 3252 3253 3253 3254 3254 3255 3256 3256 3257 3257 3258 3258 3259 3259
3217 3218 3220 3222 3223 3225 3227 3229 3230 3232 3233 3234 3236 3237 3238 3239 3241 3242 3243 3245 3246 3247 3247 3248 3249 3250 3251 3251 3252 3253 3253 3253 3254 3255 3256 3256 3257 3257 3258 3258 3259 3259
3215 3217 3219 3220 3222 3223 3225 3226 3228 3230 3232 3233 3235 3236 3237 3238 3239 3241 3242 3244 3245 3246 3247 3248 3249 3250 3250 3251 3252 3252 3253 3253 3254 3254 3255 3256 3257 3257 3257 3258 3258 3259
3214 3215 3217 3219 3220 3221 3223 3225 3227 3228 3230 3232 3233 3234 3235 3237 3238 3239 3241 3242 3244 3245 3246 3247 3248 3249 3250 3250 3251 3252 3252 3253 3253 3254 3255 3256 3256 3257 3257 3258 3258 3259
3212 3213 3215 3216 3218 3219 3221 3223 3225 3226 3228 3230 3231 3232 3233 3235 3236 3238 3239 3240 3242 3243 3244 3246 3247 3248 3249 3250 3250 3251 3252 3252 3253 3253 3254 3255 3256 3256 3257 3257 3258 3258
3210 3212 3213 3214 3216 3217 3219 3221 3223 3224 3226 3228 3229 3230 3232 3233 3234 3236 3237 3238 3240 3241 3243 3244 3246 3247 3247 3248 3249 3250 3251 3252 3252 3253 3253 3254 3255 3256 3256 3257 3257 3258
3208 3210 3211 3212 3214 3215 3217 3219 3221 3223 3224 3225 3227 3229 3230 3231 3232 3234 3235 3236 3238 3239 3241 3242 3244 3245 3246 3247 3248 3249 3250 3251 3251 3252 3253 3253 3254 3255 3255 3256 3257 3257
3205 3207 3209 3210 3212 3214 3216 3218 3219 3221 3222 3223 3225 3226 3227 3229 3230 3231 3232 3234 3235 3237 3238 3240 3242 3243 3244 3245 3247 3247 3248 3249 3250 3250 3251 3252 3253 3254 3254 3255 3256 3256
3203 3204 3206 3208 3210 3212 3214 3216 3217 3218 3220 3221 3223 3224 3225 3227 3228 3229 3230 3231 3233 3234 3236 3238 3239 3241 3242 3243 3245 3246 3247 3247 3248 3249 3250 3251 3252 3253 3253 3254 3254 3255
3200 3202 3204 3206 3207 3209 3211 3213 3214 3216 3217 3219 3221 3222 3223 3225 3226 3226 3227 3229 3230 3232 3233 3235 3237 3238 3239 3241 3242 3243 3244 3245 3246 3247 3248 3249 3250 3251 3252 3252 3253 3254
3197 3199 3201 3203 3205 3207 3209 3210 3212 3213 3215 3216 3218 3219 3221 3222 3223 3224 3225 3227 3228 3229 3230 3232 3233 3235 3236 3238 3239 3241 3242 3243 3244 3245 3247 3248 3249 3250 3250 3251 3251 3252
3195 3197 3198 3200 3202 3204 3206 3207 3209 3210 3212 3214 3215 3216 3218 3219 3221 3222 3223 3224 3226 3227 3228 3229 3230 3231 3233 3235 3236 3238 3239 3241 3242 3243 3244 3245 3247 3248 3248 3249 3250 3250
3192 3194 3195 3197 3199 3201 3202 3204 3206 3207 3209 3211 3212 3213 3215 3217 3218 3219 3220 3221 3223 3224 3226 3226 3227 3228 3230 3232 3234 3235 3236 3238 3239 3240 3242 3243 3244 3245 3246 3247 3248 3249
3189 3190 3192 3194 3195 3197 3199 3201 3203 3204 3206 3207 3209 3210 3212 3214 3215 3216 3217 3218 3220 3221 3222 3223 3224 3226 3227 3229 3231 3232 3234 3235 3236 3238 3239 3240 3241 3242 3243 3244 3246 3247
3185 3186 3188 3190 3191 3193 3195 3197 3199 3201 3202 3204 3205 3207 3209 3210 3211 3213 3214 3215 3216 3218 3219 3220 3221 3223 3225 3227 3228 3229 3231 3232 3233 3235 3236 3237 3238 3239 3240 3242 3243 3244
3180 3182 3183 3185 3187 3189 3191 3193 3195 3197 3198 3200 3202 3203 3205 3206 3208 3209 3210 3212 3213 3214 3216 3217 3218 3220 3222 3223 3225 3226 3228 3229 3230 3231 3232 3234 3235 3236 3237 3239 3240 3241
3175 3176 3178 3180 3183 3185 3187 3189 3190 3192 3194 3196 3198 3200 3201 3202 3204 3206 3207 3208 3209 3211 3212 3213 3215 3217 3219 3220 3222 3223 3225 3226 3227 3228 3229 3230 3232 3233 3234 3235 3236 3237
3171 3172 3174 3176 3178 3180 3182 3184 3185 3188 3190 3192 3194 3195 3196 3198 3200 3202 3203 3205 3206 3207 3209 3210 3212 3214 3216 3217 3218 3220 3221 3222 3223 3224 3226 3227 3228 3229 3231 3232 3233 3234
3169 3171 3172 3173 3174 3175 3177 3179 3181 3183 3186 3188 3189 3191 3193 3195 3196 3198 3199 3201 3203 3204 3205 3206 3208 3211 3213 3214 3215 3217 3218 3219 3220 3221 3222 3223 3224 3226 3227 3229 3230 3230
3165 3167 3169 3170 3171 3172 3173 3175 3177 3179 3182 3184 3185 3187 3189 3190 3192 3193 3195 3197 3199 3200 3201 3202 3205 3207 3209 3210 3212 3214 3215 3215 3216 3217 3218 3220 3221 3222 3224 3225 3226 3227
3160 3162 3163 3165 3167 3168 3169 3171 3173 3175 3178 3180 3181 3183 3185 3186 3188 3189 3191 3193 3194 3195 3197 3199 3201 3204 3205 3207 3209 3210 3211 3212 3213 3214 3215 3216 3218 3219 3220 3221 3222 3223
3156 3157 3158 3160 3161 3163 3165 3168 3169 3171 3174 3175 3177 3179 3180 3182 3184 3185 3186 3188 3189 3191 3193 3195 3197 3200 3201 3203 3205 3206 3207 3208 3210 3211 3212 3213 3214 3215 3216 3217 3219 3220
3150 3152 3154 3155 3157 3158 3161 3163 3165 3167 3169 3171 3173 3174 3176 3178 3179 3180 3182 3184 3185 3187 3189 3191 3193 3196 3197 3199 3201 3202 3203 3204 3206 3207 3208 3209 3211 3212 3213 3213 3215 3216
3145 3147 3148 3151 3153 3155 3157 3159 3161 3163 3165 3167 3169 3171 3172 3174 3175 3176 3178 3180 3181 3183 3185 3186 3189 3191 3193 3195 3197 3199 3199 3201 3201 3202 3204 3206 3207 3208 3209 3210 3210 3212
Wind_Speed
18 19 22 22 22 22 20 18 16 14 12 11 10 10 9 9 8 7 7 7 7 7 7 7 6 5 4 4 4 4 3 2 1 0 1 1 2 3 4 5 4 4
18 18 20 23 24 24 22 20 18 16 14 13 12 11 11 11 10 9 8 8 8 9 9 9 8 7 6 6 5 5 3 2 2 2 1 1 1 2 3 4 4 3
20 18 19 22 24 24 24 22 20 19 17 16 14 13 13 12 12 11 11 10 9 9 10 10 10 9 9 8 7 6 4 3 4 4 3 2 2 2 3 3 3 3
22 20 18 19 22 24 24 24 23 21 20 18 16 15 15 14 14 14 13 12 10 10 11 11 11 11 11 10 9 7 6 6 5 5 4 3 3 3 3 3 3 3
21 21 20 19 20 23 24 25 24 23 22 20 18 17 17 17 16 16 14 13 12 11 11 11 11 12 12 12 11 9 8 8 7 6 5 5 4 4 3 3 3 3
21 22 22 21 21 22 24 25 24 24 23 22 20 20 19 19 19 18 16 14 14 13 12 12 12 12 12 12 12 11 10 10 9 8 7 7 6 5 5 4 3 3
22 22 23 23 23 23 23 24 25 25 24 23 23 22 21 21 21 20 18 17 16 15 14 13 13 13 13 13 13 12 12 12 11 9 9 8 8 7 6 5 5 4
23 23 23 24 25 25 24 24 25 25 25 25 24 23 23 22 22 21 20 19 18 17 16 15 14 14 14 14 13 13 13 13 12 11 10 10 9 8 7 7 7 6
25 24 24 24 25 25 26 25 25 24 24 25 24 24 24 24 23 23 22 21 20 19 18 17 16 16 15 15 14 13 13 13 12 12 11 11 11 10 10 9 8 8
26 25 25 25 24 25 26 26 26 25 25 24 23 23 24 25 25 25 24 23 21 20 20 19 18 18 17 16 15 14 14 13 13 13 12 12 12 12 12 11 10 9
28 27 26 25 24 24 24 25 27 27 27 26 24 24 24 24 25 25 25 23 21 21 21 20 20 20 20 19 18 16 16 15 15 15 14 13 13 13 13 13 12 11
29 28 27 25 24 24 23 24 26 28 29 28 27 26 26 25 26 26 25 23 22 21 21 21 21 21 21 21 20 20 19 18 18 17 16 16 15 14 15 15 14 13
30 29 28 27 26 24 24 23 24 26 29 30 29 29 28 28 27 27 26 25 23 22 22 21 21 22 23 23 23 23 22 21 21 20 19 18 18 17 16 16 16 15
30 29 29 28 27 27 26 25 24 25 26 28 30 30 30 29 29 28 28 27 26 25 24 23 23 23 23 24 24 24 24 24 24 23 22 21 20 20 19 18 18 17
29 30 30 29 29 29 27 27 26 25 25 26 28 30 30 30 30 30 30 30 29 28 27 26 26 25 24 24 24 24 25 25 25 25 24 23 23 22 21 20 19 18
28 29 30 30 30 30 29 29 28 27 27 27 27 28 28 29 30 30 31 31 31 30 30 29 29 27 26 24 24 24 24 25 25 26 26 25 25 24 23 22 21 20
27 28 29 30 31 30 30 30 30 30 29 28 28 28 28 28 29 30 31 31 31 31 31 31 30 29 27 26 25 24 24 24 25 25 26 26 26 26 25 24 23 22
27 27 29 30 31 31 32 31 31 32 32 31 30 29 28 29 29 30 30 30 30 31 31 31 30 29 28 27 26 25 25 25 25 25 26 27 27 27 26 25 25 25
30 30 31 31 31 31 31 32 33 34 34 33 32 31 31 31 30 30 30 30 30 30 30 29 29 28 27 27 27 26 26 26 26 26 26 27 28 28 27 27 27 27
34 34 34 34 33 32 31 32 33 34 34 34 34 33 33 32 31 31 31 31 31 30 30 29 28 27 27 27 27 27 27 27 27 27 28 28 28 28 28 28 28 29
32 33 34 34 35 35 34 33 34 35 35 35 34 35 34 33 33 33 32 32 31 31 31 30 28 26 26 27 27 27 27 28 29 29 29 29 30 29 29 29 29 30
29 29 31 32 33 36 36 35 35 34 34 33 33 34 34 34 34 34 34 33 32 32 32 31 28 26 26 26 26 27 28 29 30 30 30 30 30 30 30 30 30 30
30 29 31 31 31 34 36 35 34 33 32 31 31 31 32 33 34 34 34 34 33 34 34 32 29 27 26 26 25 26 27 29 30 30 30 31 30 30 30 30 30 30
30 30 32 34 32 33 34 34 34 33 31 30 30 30 30 31 32 32 33 34 34 34 33 33 31 29 28 27 26 26 28 29 29 30 31 31 31 31 31 31 30 30
29 29 33 35 34 33 33 33 33 33 32 31 30 30 30 30 30 31 32 32 33 33 33 32 31 30 29 29 27 27 28 28 29 30 31 31 31 31 31 31 31 30
29 29 32 34 35 34 34 33 33 33 32 31 31 31 31 31 31 31 31 31 31 32 32 32 31 30 29 29 28 28 29 29 30 31 31 30 31 31 31 31 31 30
Wind_Direction
213 210 208 208 210 212 215 213 211 212 214 215 218 221 220 219 221 221 223 226 222 220 229 236 238 239 242 237 230 228 224 232 264 256 98 105 129 143 148 149 156 162
218 213 209 208 209 212 215 216 214 212 213 212 212 216 220 222 222 222 224 227 226 225 227 232 237 241 244 242 237 237 233 240 261 260 229 171 166 171 170 160 159 165
219 218 213 210 210 211 214 217 218 216 213 211 210 211 215 221 224 224 226 227 227 228 229 230 233 238 242 241 238 238 239 245 251 255 253 239 224 219 205 181 171 181
219 220 218 213 211 212 213 217 219 220 218 214 212 213 215 220 225 226 228 229 228 230 231 231 232 236 240 242 242 240 241 244 247 248 248 243 239 243 233 211 189 189
219 219 219 217 214 213 213 215 218 221 223 221 218 218 219 222 226 228 229 231 232 233 235 236 236 236 239 242 245 245 244 245 245 245 244 240 239 244 246 242 231 212
219 218 218 218 217 216 215 215 216 219 223 225 224 224 223 224 228 230 231 233 235 236 237 239 240 240 239 241 244 246 247 248 248 246 245 244 244 246 250 254 257 248
221 220 218 218 219 219 218 217 217 219 221 224 225 225 225 226 228 230 232 233 236 237 238 240 242 242 242 241 242 244 246 249 252 252 252 252 251 248 250 252 255 258
223 223 222 221 220 220 220 219 220 221 222 224 225 225 227 228 228 229 230 232 235 237 238 239 242 244 245 244 243 243 244 247 252 255 256 258 258 254 249 248 249 251
225 225 224 225 224 222 221 221 223 224 224 225 224 225 227 228 229 230 229 230 232 234 236 238 241 243 246 248 248 247 246 247 250 252 253 255 258 258 254 251 249 248
227 226 226 227 227 226 224 223 224 226 227 227 225 224 226 227 229 231 231 230 229 230 232 235 238 241 243 246 248 249 251 252 253 252 250 250 251 254 257 257 255 251
228 228 227 227 227 227 226 224 224 226 229 230 229 227 227 227 228 231 232 232 230 228 229 232 234 238 241 243 244 245 247 251 255 255 254 251 249 251 255 260 260 257
229 229 229 228 227 228 227 226 226 227 229 231 231 231 230 229 230 231 233 234 232 231 231 231 233 236 239 242 243 243 243 245 249 252 255 254 253 254 257 260 261 260
229 230 231 230 229 229 229 228 228 228 229 231 232 233 233 233 233 233 235 236 235 235 234 233 234 235 236 239 241 244 245 245 246 247 250 252 254 256 259 261 262 261
229 231 232 232 232 232 232 231 231 231 231 232 233 234 234 235 235 235 237 238 238 238 237 236 236 235 235 236 238 241 244 246 247 247 248 249 251 254 256 259 261 262
229 232 233 233 233 233 234 234 233 233 233 234 235 236 236 236 236 237 238 238 239 240 239 239 238 236 235 235 237 239 242 244 246 248 248 248 250 251 253 255 257 259
228 231 233 233 235 235 235 236 236 236 235 235 237 238 238 239 238 238 238 239 239 240 240 240 240 239 238 236 236 238 240 242 244 246 247 248 249 250 250 252 254 256
226 228 230 232 234 235 236 237 239 239 239 238 238 238 239 240 240 240 240 240 241 241 241 242 242 241 241 239 238 238 239 241 243 245 247 247 248 249 250 251 253 255
224 225 227 229 231 234 236 238 239 240 241 241 240 240 240 241 242 242 242 243 243 243 243 244 244 244 243 242 241 240 239 240 241 243 245 247 247 247 248 250 252 255
221 221 222 224 226 229 233 236 238 239 241 242 243 243 243 242 243 244 245 245 246 246 246 247 247 247 246 246 244 242 241 241 240 240 243 246 247 248 247 248 249 252
221 223 223 223 223 224 227 231 235 238 240 242 244 244 245 245 245 246 247 247 248 249 249 249 249 248 248 248 247 244 242 242 241 240 241 243 245 247 247 247 248 250
223 226 226 224 223 223 225 228 232 237 239 241 242 244 245 247 248 248 249 249 250 251 251 251 249 248 247 247 247 247 245 244 242 241 241 241 243 245 247 247 248 250
223 226 225 223 223 224 227 229 231 234 237 239 241 243 245 247 248 249 250 251 252 253 253 253 251 249 248 247 247 247 246 246 244 243 242 242 243 245 246 247 248 250
222 224 223 222 223 224 227 230 230 231 233 235 238 240 243 245 247 249 250 250 251 252 253 254 253 251 249 247 246 245 245 246 246 245 245 245 245 246 247 248 249 250
226 225 222 221 221 222 224 227 229 228 228 230 233 237 240 243 245 246 246 247 248 250 252 253 252 251 250 249 246 245 245 246 246 247 246 246 246 247 249 250 250 251
228 225 220 221 222 222 222 223 224 224 224 226 230 234 237 240 242 243 244 246 247 249 250 251 250 250 250 250 248 246 247 246 247 247 247 247 248 249 250 252 253 253
225 221 219 222 225 223 221 220 220 221 223 225 228 232 234 236 238 240 243 245 247 248 249 249 249 248 248 249 249 248 248 248 248 248 248 248 249 250 252 254 255 255